User: anonymous   Login
Location: Moonridge Observatory
(39.2268°N, 77.7914°W)
Time: 05:29:35
(UTC-05:00)
Language:

CZ-2C R/B - Orbit

View from above orbital plane
View from above orbital plane
View from above satellite
View from above satellite

Ground track
Ground track

The orbit data is extracted from the following two-line orbital elements,

1 28480U 04046B   16341.87488443  .00000019  00000-0  22064-4 0  9995
2 28480  98.1945  84.5039 0143199  72.2969  35.5290 14.25619171626837
Epoch (UTC): 06 December 2016 20:59:50
Eccentricity: 0.0143199
inclination: 98.1945°
perigee height: 703 km
apogee height: 909 km
right ascension of ascending node: 84.5039°
argument of perigee: 72.2969°
revolutions per day: 14.25619171
mean anomaly at epoch: 35.5290°
orbit number at epoch: 62683

The dashed part of the orbit path shows where the satellite is in the earth's shadow,  

DLR